Al Ahsa, Saudi Arabia

8:52 AM +03 on November 12, 2019 (GMT +0300)
Al Ahsa

Weather History for OEAH - October, 2019

Change the Weather History Date:

Sunday, October 13, 2019

  Actual Average Record
Temperature  
Mean Temperature 88 °F -  
Max Temperature 101 °F 90 °F 107 °F (2012)
Min Temperature 75 °F 65 °F 65 °F (2013)
Cooling Degree Days 23    
Growing Degree Days 38 (Base 50)    
Moisture  
Dew Point 68 °F    
Average Humidity 54    
Maximum Humidity 89    
Minimum Humidity 12    
Precipitation  
Precipitation 0.00 in - - ()
Sea Level Pressure  
Sea Level Pressure 29.84 in    
Wind  
Wind Speed 6 mph ()    
Max Wind Speed 16 mph    
Max Gust Speed -    
Visibility 4.8 miles    
Events      
Averages and records for this station are not official NWS values.
T = Trace of Precipitation, MM = Missing Value Source: Averaged Metar Reports

Daily Weather History Graph

Daily Weather History Graph

Search for Another Location

Airport or City:

Astronomy

Oct. 13, 2019 Rise Set
Actual Time 5:39 AM +03 5:17 PM +03
Civil Twilight 5:16 AM +03 5:40 PM +03
Nautical Twilight 4:49 AM +03 6:06 PM +03
Astronomical Twilight 4:23 AM +03 6:33 PM +03
Moon 5:21 PM +03 (10/13) 5:02 AM +03 (10/13)
Length of Visible Light 12h 24m
Length of Day
11h 38m
Full, 100% of the Moon is Illuminated
Oct 13
Full
Oct 14
Full
Oct 21
Last Quarter
Oct 28
New
Nov 4
First Quarter

Hourly Weather History & Observations

Time (+03) Temp. Heat Index Dew Point Humidity Pressure Visibility Wind Dir Wind Speed Gust Speed Precip Events Conditions
12:00 AM 84 °F - 72 °F 58% 29.77 in 6 mi South 3.5 mph - -  
12:00 AM 84.2 °F 89.6 °F 71.6 °F 66% 29.80 in - South 3.5 mph - N/A   Clear
1:00 AM 84.2 °F 90.9 °F 73.4 °F 70% 29.80 in - South 3.5 mph - N/A   Clear
2:00 AM 84.2 °F 89.6 °F 71.6 °F 66% 29.80 in - Calm Calm - N/A   Clear
3:00 AM 81 °F - 70 °F 61% 29.77 in 6 mi WSW 3.5 mph - -  
3:00 AM 80.6 °F 83.9 °F 69.8 °F 70% 29.80 in - WSW 3.5 mph - N/A   Clear
4:00 AM 78.8 °F - 69.8 °F 74% 29.80 in - Calm Calm - N/A   Clear
5:00 AM 78.8 °F - 73.4 °F 83% 29.83 in - South 4.6 mph - N/A   Clear
5:25 AM 77.0 °F - 73.4 °F 89% 29.83 in 2.5 mi SE 3.5 mph - N/A   Mist
6:00 AM 77 °F - 72 °F 79% 29.82 in 2 mi ESE 4.6 mph - -   Mist
6:00 AM 77.0 °F - 71.6 °F 83% 29.86 in 1.9 mi ESE 4.6 mph - N/A   Mist
7:00 AM 78.8 °F - 75.2 °F 89% 29.86 in 1.9 mi WSW 4.6 mph - N/A   Mist
8:00 AM 82.4 °F 89.5 °F 75.2 °F 79% 29.89 in - South 8.1 mph - N/A   Mist
9:00 AM 86 °F - 75 °F 63% 29.88 in 6 mi SSE 13.8 mph - -   Blowing Sand
9:00 AM 86.0 °F 95.1 °F 75.2 °F 70% 29.89 in 5.6 mi SSE 13.8 mph - N/A   Unknown
10:00 AM 89.6 °F 96.2 °F 71.6 °F 55% 29.89 in - SSE 13.8 mph - N/A   Clear
11:00 AM 93.2 °F 98.8 °F 69.8 °F 46% 29.86 in - SSE 15.0 mph - N/A   Clear
12:00 PM 96 °F - 63 °F 24% 29.82 in 6 mi ESE 16.1 mph - -  
12:00 PM 96.8 °F 98.0 °F 62.6 °F 32% 29.86 in - ESE 16.1 mph - N/A   Clear
1:00 PM 98.6 °F 99.4 °F 60.8 °F 29% 29.83 in - East 13.8 mph - N/A   Clear
2:00 PM 100.4 °F 100.2 °F 59.0 °F 25% 29.83 in - East 8.1 mph - N/A   Clear
3:00 PM 100 °F - 52 °F 12% 29.77 in 6 mi East 13.8 mph - -  
3:00 PM 100.4 °F 104.9 °F 66.2 °F 33% 29.80 in - East 13.8 mph - N/A   Clear
4:00 PM 100.4 °F - 50.0 °F 18% 29.80 in - East 8.1 mph - N/A   Clear
5:00 PM 98.6 °F - 51.8 °F 21% 29.83 in 6.2 mi ENE 9.2 mph - N/A   Partly Cloudy
6:00 PM 97 °F - 55 °F 16% 29.81 in 6 mi East 10.4 mph - -  
6:00 PM 96.8 °F 95.1 °F 55.4 °F 25% 29.83 in - East 10.4 mph - N/A   Clear
7:00 PM 95.0 °F 96.0 °F 62.6 °F 34% 29.86 in - ENE 12.7 mph - N/A   Clear
8:00 PM 91.4 °F 94.0 °F 66.2 °F 43% 29.89 in - ENE 12.7 mph - N/A   Clear
9:00 PM 88 °F - 77 °F 63% 29.89 in 6 mi ENE 11.5 mph - -  
9:00 PM 87.8 °F 99.7 °F 77.0 °F 70% 29.92 in - ENE 11.5 mph - N/A   Clear
10:00 PM 86.0 °F 96.9 °F 77.0 °F 74% 29.92 in 5.0 mi ENE 6.9 mph - N/A   Unknown